CGBYQ CYGR-CYXZ

Flight info

Callsign CGBYQ
Flight time N/A
Altitude 24000
Route IKURO Q951 ITPAX Q864 EBGIX/N0271F260 Q864 DERDO Q806 SAVEX DCT BEMOG Q919 DASUG
Aircraft PC12/L-SDFGRWY/S

Departure

Time N/A
Airport Îles-de-la-Madeleine Airport (CYGR)

Arrival

Time 2026-05-07 16:35
Airport Wawa Airport (CYXZ)
Time Latitude Longitude Altitude Speed Heading
2026-05-07 14:03 45.61083 -71.83315 24041 ft 214 kts 257°
2026-05-07 14:03 45.60928 -71.85457 24041 ft 214 kts 257°
2026-05-07 14:04 45.60776 -71.87564 24042 ft 213 kts 257°
2026-05-07 14:04 45.60623 -71.89674 24041 ft 214 kts 257°
2026-05-07 14:04 45.60470 -71.91781 24042 ft 214 kts 257°
2026-05-07 14:04 45.60316 -71.93893 24042 ft 214 kts 257°
2026-05-07 14:05 45.60162 -71.96003 24041 ft 213 kts 257°
2026-05-07 14:05 45.60010 -71.98080 24041 ft 213 kts 257°
2026-05-07 14:05 45.59855 -72.00186 24041 ft 213 kts 257°
2026-05-07 14:05 45.59700 -72.02285 24042 ft 213 kts 257°
2026-05-07 14:06 45.59545 -72.04383 24041 ft 212 kts 258°
2026-05-07 14:06 45.59391 -72.06476 24039 ft 211 kts 258°
2026-05-07 14:06 45.59237 -72.08555 24040 ft 211 kts 257°
2026-05-07 14:06 45.59082 -72.10631 24041 ft 210 kts 258°
2026-05-07 14:07 45.58928 -72.12705 24041 ft 210 kts 258°
2026-05-07 14:07 45.58773 -72.14778 24040 ft 210 kts 258°
2026-05-07 14:07 45.58618 -72.16846 24039 ft 209 kts 258°
2026-05-07 14:07 45.58463 -72.18908 24040 ft 209 kts 257°
2026-05-07 14:08 45.58308 -72.20964 24041 ft 209 kts 257°
2026-05-07 14:08 45.58152 -72.23025 24041 ft 209 kts 257°
2026-05-07 14:08 45.57996 -72.25089 24041 ft 209 kts 257°
2026-05-07 14:08 45.57841 -72.27144 24041 ft 208 kts 257°
2026-05-07 14:09 45.57684 -72.29201 24041 ft 209 kts 257°
2026-05-07 14:09 45.57526 -72.31267 24042 ft 210 kts 257°
2026-05-07 14:09 45.57368 -72.33347 24043 ft 211 kts 257°
2026-05-07 14:09 45.57301 -72.35447 24041 ft 213 kts 261°
2026-05-07 14:10 45.57261 -72.37562 24042 ft 213 kts 261°
2026-05-07 14:10 45.57217 -72.39670 24060 ft 212 kts 261°
2026-05-07 14:10 45.57175 -72.41779 24060 ft 213 kts 261°
2026-05-07 14:10 45.57133 -72.43893 24060 ft 213 kts 261°
2026-05-07 14:11 45.57092 -72.45978 24059 ft 213 kts 261°
2026-05-07 14:11 45.57049 -72.48086 24060 ft 212 kts 261°
2026-05-07 14:11 45.57007 -72.50187 24059 ft 211 kts 261°
2026-05-07 14:11 45.56964 -72.52285 24060 ft 211 kts 261°
2026-05-07 14:12 45.56920 -72.54382 24060 ft 212 kts 261°
2026-05-07 14:12 45.56876 -72.56482 24060 ft 212 kts 261°
2026-05-07 14:12 45.56831 -72.58588 24059 ft 212 kts 261°
2026-05-07 14:12 45.56787 -72.60683 24060 ft 211 kts 261°
2026-05-07 14:13 45.56742 -72.62777 24058 ft 211 kts 261°
2026-05-07 14:13 45.56696 -72.64871 24058 ft 211 kts 261°
2026-05-07 14:13 45.56651 -72.66957 24060 ft 210 kts 261°
2026-05-07 14:13 45.56605 -72.69035 24059 ft 210 kts 261°
2026-05-07 14:14 45.56560 -72.71115 24060 ft 209 kts 261°
2026-05-07 14:14 45.56513 -72.73185 24059 ft 209 kts 261°
2026-05-07 14:14 45.56466 -72.75259 24058 ft 208 kts 261°
2026-05-07 14:14 45.56419 -72.77322 24058 ft 208 kts 261°
2026-05-07 14:15 45.56371 -72.79394 24058 ft 209 kts 261°
2026-05-07 14:15 45.56323 -72.81439 24059 ft 209 kts 261°
2026-05-07 14:15 45.56275 -72.83514 24060 ft 209 kts 261°
2026-05-07 14:15 45.56226 -72.85587 24060 ft 208 kts 261°
2026-05-07 14:16 45.56178 -72.87654 24060 ft 208 kts 261°
2026-05-07 14:16 45.56129 -72.89713 24060 ft 208 kts 261°
2026-05-07 14:16 45.56079 -72.91771 24060 ft 207 kts 261°
2026-05-07 14:16 45.56030 -72.93823 24058 ft 207 kts 261°
2026-05-07 14:17 45.55980 -72.95872 24060 ft 206 kts 261°
2026-05-07 14:17 45.55930 -72.97911 24059 ft 206 kts 261°
2026-05-07 14:17 45.55896 -72.99260 24059 ft 205 kts 261°
2026-05-07 14:17 45.55845 -73.01302 24058 ft 206 kts 261°
2026-05-07 14:18 45.55777 -73.04005 24060 ft 206 kts 261°
2026-05-07 14:18 45.55727 -73.05999 24060 ft 206 kts 261°
2026-05-07 14:18 45.55675 -73.08038 24060 ft 206 kts 261°
2026-05-07 14:18 45.55639 -73.09423 24060 ft 206 kts 261°
2026-05-07 14:19 45.55586 -73.11471 24060 ft 206 kts 261°
2026-05-07 14:19 45.55534 -73.13516 24060 ft 206 kts 261°
2026-05-07 14:19 45.55481 -73.15555 24060 ft 206 kts 261°
2026-05-07 14:19 45.55427 -73.17595 24061 ft 206 kts 260°
2026-05-07 14:20 45.55373 -73.19642 24061 ft 206 kts 261°
2026-05-07 14:20 45.55319 -73.21658 24060 ft 205 kts 261°
2026-05-07 14:20 45.55265 -73.23680 24060 ft 205 kts 261°
2026-05-07 14:20 45.55210 -73.25714 24058 ft 205 kts 260°
2026-05-07 14:21 45.55156 -73.27688 24060 ft 205 kts 261°
2026-05-07 14:21 45.55103 -73.29621 24059 ft 205 kts 260°
2026-05-07 14:21 45.55049 -73.31651 24068 ft 205 kts 260°
2026-05-07 14:21 45.54991 -73.33688 24065 ft 205 kts 260°
2026-05-07 14:22 45.54915 -73.36385 24065 ft 206 kts 260°
2026-05-07 14:22 45.54877 -73.37760 24064 ft 205 kts 260°
2026-05-07 14:22 45.54820 -73.39797 24065 ft 205 kts 260°
2026-05-07 14:22 45.54762 -73.41832 24065 ft 205 kts 260°
2026-05-07 14:23 45.54704 -73.43863 24063 ft 204 kts 260°
2026-05-07 14:23 45.54647 -73.45856 24064 ft 204 kts 260°
2026-05-07 14:23 45.54590 -73.47827 24065 ft 203 kts 260°
2026-05-07 14:23 45.54529 -73.49896 24064 ft 204 kts 260°
2026-05-07 14:24 45.54469 -73.51923 24064 ft 205 kts 260°
2026-05-07 14:24 45.54409 -73.53950 24065 ft 205 kts 260°
2026-05-07 14:24 45.54350 -73.55983 24065 ft 205 kts 260°
2026-05-07 14:24 45.54289 -73.58016 24064 ft 205 kts 260°
2026-05-07 14:25 45.54228 -73.60047 24065 ft 205 kts 260°
2026-05-07 14:25 45.54167 -73.62079 24063 ft 205 kts 260°
2026-05-07 14:25 45.54106 -73.64111 24065 ft 205 kts 260°
2026-05-07 14:25 45.54043 -73.66144 24066 ft 205 kts 260°
2026-05-07 14:26 45.53981 -73.68174 24067 ft 204 kts 260°
2026-05-07 14:26 45.53918 -73.70196 24067 ft 204 kts 260°
2026-05-07 14:26 45.53856 -73.72215 24067 ft 203 kts 260°
2026-05-07 14:26 45.53792 -73.74232 24068 ft 204 kts 260°
2026-05-07 14:27 45.53729 -73.76249 24067 ft 203 kts 260°
2026-05-07 14:27 45.53665 -73.78265 24066 ft 203 kts 260°
2026-05-07 14:27 45.53602 -73.80276 24067 ft 203 kts 260°
2026-05-07 14:27 45.53537 -73.82290 24067 ft 203 kts 260°
2026-05-07 14:28 45.53472 -73.84302 24067 ft 203 kts 260°
2026-05-07 14:28 45.53408 -73.86284 24067 ft 203 kts 260°
2026-05-07 14:28 45.53342 -73.88306 24066 ft 204 kts 260°
2026-05-07 14:28 45.53275 -73.90334 24068 ft 205 kts 260°
2026-05-07 14:29 45.53208 -73.92371 24068 ft 206 kts 260°
2026-05-07 14:29 45.53141 -73.94411 24067 ft 206 kts 260°
2026-05-07 14:29 45.53074 -73.96454 24066 ft 206 kts 260°
2026-05-07 14:29 45.53006 -73.98498 24068 ft 206 kts 260°
2026-05-07 14:30 45.52938 -74.00538 24066 ft 206 kts 260°
2026-05-07 14:30 45.52869 -74.02576 24068 ft 205 kts 260°
2026-05-07 14:30 45.52800 -74.04610 24076 ft 205 kts 260°
2026-05-07 14:30 45.52731 -74.06640 24069 ft 205 kts 260°
2026-05-07 14:31 45.52661 -74.08671 24066 ft 205 kts 260°
2026-05-07 14:31 45.52591 -74.10695 24069 ft 204 kts 260°
2026-05-07 14:31 45.52521 -74.12716 24069 ft 204 kts 260°
2026-05-07 14:31 45.52451 -74.14742 24069 ft 204 kts 260°
2026-05-07 14:32 45.52381 -74.16739 24067 ft 204 kts 260°
2026-05-07 14:32 45.52309 -74.18787 24066 ft 204 kts 260°
2026-05-07 14:32 45.52238 -74.20808 24067 ft 204 kts 260°
2026-05-07 14:32 45.52165 -74.22824 24067 ft 204 kts 260°
2026-05-07 14:33 45.52093 -74.24823 24066 ft 205 kts 260°
2026-05-07 14:33 45.52021 -74.26857 24068 ft 205 kts 260°
2026-05-07 14:33 45.51948 -74.28890 24068 ft 206 kts 260°
2026-05-07 14:33 45.51875 -74.30925 24069 ft 206 kts 260°
2026-05-07 14:34 45.51801 -74.32965 24072 ft 205 kts 260°
2026-05-07 14:34 45.51726 -74.34993 24069 ft 205 kts 260°
2026-05-07 14:34 45.51652 -74.37023 24068 ft 205 kts 260°
2026-05-07 14:34 45.51577 -74.39045 24069 ft 205 kts 260°
2026-05-07 14:35 45.51502 -74.41068 24069 ft 204 kts 260°
2026-05-07 14:35 45.51426 -74.43094 24076 ft 205 kts 260°
2026-05-07 14:35 45.51393 -74.45124 24066 ft 208 kts 266°
2026-05-07 14:35 45.51832 -74.47153 24074 ft 224 kts 285°
2026-05-07 14:36 45.52793 -74.48989 24073 ft 235 kts 296°
2026-05-07 14:36 45.53858 -74.50764 24074 ft 235 kts 296°
2026-05-07 14:36 45.54914 -74.52542 24078 ft 235 kts 296°
2026-05-07 14:36 45.55957 -74.54329 24077 ft 234 kts 295°
2026-05-07 14:37 45.56999 -74.56117 24078 ft 234 kts 296°
2026-05-07 14:37 45.59087 -74.59689 24078 ft 234 kts 296°
2026-05-07 14:37 45.60131 -74.61477 24079 ft 234 kts 296°
2026-05-07 14:38 45.61159 -74.63240 24073 ft 234 kts 296°
2026-05-07 14:38 45.62212 -74.65047 24073 ft 234 kts 296°
2026-05-07 14:38 45.63240 -74.66811 24073 ft 234 kts 296°
2026-05-07 14:38 45.64280 -74.68599 24075 ft 234 kts 296°
2026-05-07 14:39 45.65320 -74.70385 24074 ft 234 kts 296°
2026-05-07 14:39 45.66359 -74.72170 24083 ft 233 kts 296°
2026-05-07 14:39 45.67390 -74.73946 24079 ft 232 kts 296°
2026-05-07 14:39 45.68422 -74.75723 24081 ft 232 kts 296°
2026-05-07 14:40 45.69456 -74.77507 24075 ft 233 kts 296°
2026-05-07 14:40 45.70493 -74.79297 24079 ft 234 kts 296°
2026-05-07 14:40 45.71535 -74.81095 24084 ft 235 kts 296°
2026-05-07 14:40 45.72582 -74.82898 24077 ft 235 kts 296°
2026-05-07 14:41 45.73627 -74.84699 24076 ft 235 kts 296°
2026-05-07 14:41 45.74669 -74.86503 24082 ft 235 kts 296°
2026-05-07 14:41 45.75710 -74.88305 24105 ft 235 kts 296°
2026-05-07 14:41 45.76749 -74.90106 24105 ft 235 kts 296°
2026-05-07 14:42 45.77793 -74.91913 24104 ft 235 kts 296°
2026-05-07 14:42 45.78835 -74.93715 24103 ft 234 kts 296°
2026-05-07 14:42 45.79873 -74.95521 24107 ft 235 kts 296°
2026-05-07 14:42 45.80914 -74.97320 24105 ft 234 kts 296°
2026-05-07 14:43 45.81954 -74.99121 24104 ft 234 kts 296°
2026-05-07 14:43 45.82973 -75.00893 24104 ft 233 kts 296°
2026-05-07 14:43 45.84020 -75.02715 24104 ft 233 kts 296°
2026-05-07 14:43 45.85037 -75.04485 24104 ft 233 kts 296°
2026-05-07 14:44 45.86069 -75.06282 24104 ft 233 kts 296°
2026-05-07 14:44 45.87102 -75.08081 24104 ft 233 kts 296°
2026-05-07 14:44 45.88132 -75.09875 24104 ft 233 kts 297°
2026-05-07 14:44 45.89158 -75.11665 24104 ft 232 kts 296°
2026-05-07 14:45 45.90185 -75.13459 24105 ft 232 kts 296°
2026-05-07 14:45 45.91210 -75.15250 24106 ft 233 kts 297°
2026-05-07 14:45 45.92238 -75.17046 24101 ft 232 kts 297°
2026-05-07 14:45 45.93263 -75.18837 24103 ft 231 kts 297°
2026-05-07 14:46 45.94285 -75.20629 24103 ft 232 kts 297°
2026-05-07 14:46 45.95306 -75.22417 24101 ft 231 kts 297°
2026-05-07 14:46 45.96327 -75.24206 24103 ft 232 kts 297°
2026-05-07 14:46 45.97351 -75.26005 24104 ft 234 kts 297°
2026-05-07 14:47 45.98383 -75.27814 24105 ft 234 kts 297°
2026-05-07 14:47 45.99416 -75.29624 24105 ft 234 kts 297°
2026-05-07 14:47 46.00437 -75.31416 24106 ft 235 kts 297°
2026-05-07 14:47 46.01473 -75.33242 24100 ft 236 kts 298°
2026-05-07 14:48 46.02513 -75.35075 24101 ft 237 kts 298°
2026-05-07 14:48 46.03562 -75.36919 24103 ft 239 kts 298°
2026-05-07 14:48 46.04614 -75.38770 24104 ft 239 kts 298°
2026-05-07 14:48 46.05669 -75.40629 24104 ft 240 kts 298°
2026-05-07 14:49 46.06724 -75.42490 24104 ft 240 kts 298°
2026-05-07 14:49 46.07782 -75.44356 24105 ft 241 kts 298°
2026-05-07 14:49 46.08837 -75.46219 24104 ft 240 kts 298°
2026-05-07 14:49 46.09892 -75.48080 24106 ft 240 kts 298°
2026-05-07 14:50 46.10945 -75.49946 24104 ft 240 kts 298°
2026-05-07 14:50 46.11996 -75.51806 24105 ft 239 kts 298°
2026-05-07 14:50 46.13047 -75.53667 24105 ft 239 kts 298°
2026-05-07 14:50 46.14095 -75.55525 24105 ft 239 kts 298°
2026-05-07 14:51 46.15089 -75.57421 24104 ft 231 kts 290°
2026-05-07 14:51 46.15744 -75.59486 24107 ft 225 kts 284°
2026-05-07 14:51 46.16365 -75.61568 24111 ft 226 kts 284°
2026-05-07 14:51 46.16986 -75.63619 24108 ft 226 kts 284°
2026-05-07 14:52 46.17616 -75.65703 24110 ft 227 kts 284°
2026-05-07 14:52 46.18246 -75.67798 24111 ft 228 kts 284°
2026-05-07 14:52 46.18878 -75.69901 24110 ft 229 kts 284°
2026-05-07 14:52 46.19511 -75.72008 24111 ft 229 kts 284°
2026-05-07 14:53 46.20145 -75.74118 24110 ft 229 kts 284°
2026-05-07 14:53 46.20778 -75.76230 24110 ft 229 kts 284°
2026-05-07 14:53 46.21413 -75.78345 24112 ft 229 kts 284°
2026-05-07 14:53 46.22045 -75.80455 24111 ft 229 kts 284°
2026-05-07 14:54 46.22675 -75.82561 24111 ft 228 kts 284°
2026-05-07 14:54 46.23304 -75.84664 24111 ft 228 kts 284°
2026-05-07 14:54 46.23931 -75.86763 24109 ft 227 kts 284°
2026-05-07 14:54 46.24555 -75.88853 24111 ft 226 kts 284°
2026-05-07 14:55 46.25176 -75.90938 24112 ft 226 kts 284°
2026-05-07 14:55 46.25799 -75.93030 24109 ft 226 kts 284°
2026-05-07 14:55 46.26420 -75.95116 24109 ft 226 kts 284°
2026-05-07 14:55 46.27041 -75.97203 24109 ft 226 kts 284°
2026-05-07 14:56 46.27653 -75.99262 24110 ft 226 kts 284°
2026-05-07 14:56 46.28281 -76.01378 24110 ft 226 kts 284°
2026-05-07 14:56 46.28892 -76.03437 24110 ft 226 kts 284°
2026-05-07 14:56 46.29510 -76.05519 24109 ft 225 kts 284°
2026-05-07 14:57 46.30126 -76.07600 24110 ft 225 kts 284°
2026-05-07 14:57 46.30740 -76.09677 24110 ft 225 kts 284°
2026-05-07 14:57 46.31356 -76.11764 24110 ft 226 kts 284°
2026-05-07 14:57 46.31976 -76.13858 24112 ft 227 kts 284°
2026-05-07 14:58 46.32597 -76.15961 24113 ft 227 kts 284°
2026-05-07 14:58 46.33220 -76.18070 24113 ft 228 kts 284°
2026-05-07 14:58 46.33842 -76.20182 24111 ft 228 kts 284°
2026-05-07 14:58 46.34464 -76.22295 24109 ft 228 kts 284°
2026-05-07 14:59 46.35086 -76.24408 24108 ft 228 kts 284°
2026-05-07 14:59 46.35708 -76.26522 24109 ft 228 kts 284°
2026-05-07 14:59 46.36329 -76.28639 24110 ft 228 kts 284°
2026-05-07 14:59 46.36952 -76.30760 24111 ft 229 kts 284°
2026-05-07 15:00 46.37566 -76.32855 24110 ft 229 kts 284°
2026-05-07 15:00 46.38189 -76.34983 24111 ft 229 kts 285°
2026-05-07 15:00 46.38812 -76.37111 24110 ft 230 kts 285°
2026-05-07 15:00 46.39435 -76.39240 24111 ft 230 kts 285°
2026-05-07 15:01 46.40058 -76.41371 24110 ft 230 kts 285°
2026-05-07 15:01 46.40683 -76.43514 24110 ft 230 kts 285°
2026-05-07 15:01 46.41305 -76.45645 24113 ft 230 kts 285°
2026-05-07 15:01 46.41927 -76.47782 24113 ft 230 kts 285°
2026-05-07 15:02 46.42549 -76.49916 24113 ft 230 kts 285°
2026-05-07 15:02 46.43171 -76.52053 24114 ft 230 kts 285°
2026-05-07 15:02 46.43793 -76.54193 24113 ft 230 kts 285°
2026-05-07 15:02 46.44414 -76.56330 24114 ft 230 kts 285°
2026-05-07 15:03 46.45036 -76.58475 24114 ft 231 kts 285°
2026-05-07 15:03 46.45659 -76.60624 24114 ft 231 kts 285°
2026-05-07 15:03 46.46282 -76.62772 24113 ft 231 kts 285°
2026-05-07 15:03 46.46905 -76.64925 24113 ft 231 kts 285°
2026-05-07 15:04 46.47528 -76.67080 24114 ft 232 kts 285°
2026-05-07 15:04 46.48151 -76.69238 24114 ft 233 kts 285°
2026-05-07 15:04 46.48781 -76.71422 24114 ft 235 kts 285°
2026-05-07 15:04 46.49199 -76.72872 24116 ft 235 kts 285°
2026-05-07 15:05 46.49832 -76.75067 24114 ft 236 kts 286°
2026-05-07 15:05 46.50465 -76.77263 24115 ft 236 kts 286°
2026-05-07 15:05 46.51098 -76.79463 24113 ft 236 kts 286°
2026-05-07 15:05 46.51939 -76.82388 24113 ft 237 kts 286°
2026-05-07 15:06 46.52358 -76.83850 24114 ft 237 kts 286°
2026-05-07 15:06 46.52992 -76.86057 24114 ft 237 kts 286°
2026-05-07 15:06 46.53626 -76.88269 24115 ft 237 kts 286°
2026-05-07 15:06 46.54260 -76.90483 24115 ft 237 kts 286°
2026-05-07 15:07 46.54893 -76.92696 24115 ft 237 kts 286°
2026-05-07 15:07 46.55528 -76.94913 24115 ft 237 kts 286°
2026-05-07 15:07 46.56162 -76.97134 24115 ft 237 kts 286°
2026-05-07 15:07 46.56793 -76.99347 24114 ft 237 kts 286°
2026-05-07 15:08 46.57424 -77.01560 24115 ft 237 kts 286°
2026-05-07 15:08 46.58056 -77.03777 24115 ft 237 kts 286°
2026-05-07 15:08 46.58686 -77.05992 24115 ft 237 kts 286°
2026-05-07 15:08 46.59317 -77.08211 24115 ft 237 kts 286°
2026-05-07 15:09 46.59946 -77.10421 24114 ft 237 kts 287°
2026-05-07 15:09 46.60574 -77.12638 24115 ft 237 kts 287°
2026-05-07 15:09 46.61195 -77.14827 24115 ft 237 kts 287°
2026-05-07 15:09 46.61822 -77.17042 24114 ft 237 kts 287°
2026-05-07 15:10 46.62448 -77.19253 24113 ft 237 kts 287°
2026-05-07 15:10 46.63077 -77.21478 24115 ft 238 kts 287°
2026-05-07 15:10 46.63707 -77.23709 24116 ft 239 kts 287°
2026-05-07 15:10 46.64340 -77.25952 24116 ft 240 kts 287°
2026-05-07 15:11 46.64974 -77.28200 24118 ft 240 kts 287°
2026-05-07 15:11 46.65608 -77.30450 24116 ft 240 kts 287°
2026-05-07 15:11 46.66242 -77.32700 24116 ft 240 kts 287°
2026-05-07 15:11 46.66874 -77.34949 24116 ft 240 kts 287°
2026-05-07 15:12 46.67505 -77.37193 24115 ft 240 kts 287°
2026-05-07 15:12 46.68136 -77.39440 24116 ft 240 kts 287°
2026-05-07 15:12 46.68766 -77.41689 24116 ft 239 kts 287°
2026-05-07 15:12 46.69394 -77.43935 24115 ft 239 kts 287°
2026-05-07 15:13 46.70023 -77.46177 24116 ft 239 kts 287°
2026-05-07 15:13 46.70648 -77.48411 24117 ft 239 kts 287°
2026-05-07 15:13 46.71273 -77.50656 24115 ft 238 kts 287°
2026-05-07 15:13 46.71893 -77.52891 24115 ft 238 kts 287°
2026-05-07 15:14 46.72514 -77.55127 24115 ft 238 kts 287°
2026-05-07 15:14 46.73133 -77.57357 24116 ft 238 kts 288°
2026-05-07 15:14 46.73751 -77.59587 24116 ft 237 kts 290°
2026-05-07 15:14 46.74367 -77.61808 24115 ft 235 kts 290°
2026-05-07 15:15 46.74979 -77.64018 24115 ft 235 kts 290°
2026-05-07 15:15 46.75580 -77.66195 24115 ft 234 kts 290°
2026-05-07 15:15 46.76188 -77.68395 24116 ft 233 kts 290°
2026-05-07 15:15 46.76795 -77.70593 24116 ft 233 kts 290°
2026-05-07 15:16 46.77400 -77.72787 24115 ft 233 kts 290°
2026-05-07 15:16 46.78005 -77.74984 24115 ft 233 kts 290°
2026-05-07 15:16 46.78610 -77.77180 24115 ft 233 kts 290°
2026-05-07 15:16 46.79215 -77.79381 24116 ft 233 kts 290°
2026-05-07 15:17 46.79818 -77.81578 24115 ft 233 kts 290°
2026-05-07 15:17 46.80421 -77.83775 24115 ft 234 kts 290°
2026-05-07 15:17 46.81028 -77.85989 24115 ft 235 kts 290°
2026-05-07 15:17 46.81636 -77.88209 24117 ft 236 kts 290°
2026-05-07 15:18 46.82245 -77.90433 24116 ft 236 kts 290°
2026-05-07 15:18 46.82853 -77.92658 24116 ft 236 kts 290°
2026-05-07 15:18 46.83464 -77.94893 24116 ft 236 kts 290°
2026-05-07 15:18 46.84065 -77.97094 24116 ft 237 kts 290°
2026-05-07 15:19 46.84674 -77.99327 24117 ft 236 kts 290°
2026-05-07 15:19 46.85283 -78.01564 24116 ft 237 kts 290°
2026-05-07 15:19 46.85891 -78.03799 24116 ft 237 kts 290°
2026-05-07 15:19 46.86500 -78.06037 24117 ft 237 kts 290°
2026-05-07 15:20 46.87109 -78.08274 24116 ft 237 kts 290°
2026-05-07 15:20 46.87715 -78.10509 24115 ft 237 kts 290°
2026-05-07 15:20 46.88320 -78.12741 24115 ft 236 kts 291°
2026-05-07 15:20 46.88925 -78.14976 24115 ft 236 kts 290°
2026-05-07 15:21 46.89531 -78.17212 24116 ft 236 kts 290°
2026-05-07 15:21 46.90136 -78.19449 24116 ft 237 kts 290°
2026-05-07 15:21 46.90740 -78.21689 24115 ft 237 kts 291°
2026-05-07 15:21 46.91345 -78.23929 24116 ft 237 kts 291°
2026-05-07 15:22 46.91950 -78.26174 24116 ft 237 kts 291°
2026-05-07 15:22 46.92546 -78.28385 24116 ft 237 kts 290°
2026-05-07 15:22 46.93150 -78.30629 24115 ft 237 kts 290°
2026-05-07 15:22 46.93754 -78.32879 24115 ft 237 kts 291°
2026-05-07 15:23 46.94358 -78.35122 24115 ft 237 kts 291°
2026-05-07 15:23 46.94963 -78.37380 24116 ft 239 kts 291°
2026-05-07 15:23 46.95571 -78.39647 24117 ft 239 kts 291°
2026-05-07 15:23 46.96179 -78.41917 24118 ft 240 kts 291°
2026-05-07 15:24 46.96789 -78.44196 24116 ft 240 kts 291°
2026-05-07 15:24 46.97398 -78.46475 24116 ft 240 kts 291°
2026-05-07 15:24 46.98007 -78.48755 24116 ft 241 kts 291°
2026-05-07 15:24 46.98617 -78.51043 24116 ft 241 kts 291°
2026-05-07 15:25 46.99226 -78.53326 24117 ft 241 kts 291°
2026-05-07 15:25 46.99834 -78.55610 24116 ft 241 kts 291°
2026-05-07 15:25 47.00442 -78.57897 24117 ft 241 kts 291°
2026-05-07 15:25 47.01050 -78.60183 24116 ft 241 kts 291°
2026-05-07 15:26 47.01651 -78.62444 24117 ft 241 kts 291°
2026-05-07 15:26 47.02257 -78.64730 24116 ft 241 kts 291°
2026-05-07 15:26 47.02862 -78.67017 24117 ft 241 kts 291°
2026-05-07 15:26 47.03467 -78.69303 24117 ft 241 kts 291°
2026-05-07 15:27 47.04072 -78.71587 24116 ft 240 kts 291°
2026-05-07 15:27 47.04676 -78.73875 24116 ft 241 kts 291°
2026-05-07 15:27 47.05280 -78.76166 24116 ft 241 kts 291°
2026-05-07 15:27 47.05884 -78.78453 24117 ft 241 kts 291°
2026-05-07 15:28 47.06487 -78.80743 24117 ft 241 kts 291°
2026-05-07 15:28 47.07091 -78.83037 24116 ft 241 kts 291°
2026-05-07 15:28 47.07694 -78.85333 24116 ft 241 kts 291°
2026-05-07 15:28 47.08297 -78.87628 24117 ft 241 kts 291°
2026-05-07 15:29 47.08901 -78.89930 24117 ft 242 kts 291°
2026-05-07 15:29 47.09507 -78.92245 24117 ft 243 kts 291°
2026-05-07 15:29 47.10115 -78.94569 24118 ft 244 kts 291°
2026-05-07 15:29 47.10726 -78.96899 24118 ft 244 kts 291°
2026-05-07 15:30 47.11334 -78.99227 24117 ft 244 kts 291°
2026-05-07 15:30 47.11942 -79.01554 24118 ft 244 kts 291°
2026-05-07 15:30 47.12549 -79.03882 24117 ft 244 kts 291°
2026-05-07 15:30 47.13155 -79.06208 24117 ft 244 kts 291°
2026-05-07 15:31 47.13760 -79.08533 24117 ft 244 kts 291°
2026-05-07 15:31 47.14366 -79.10860 24117 ft 244 kts 291°
2026-05-07 15:31 47.14969 -79.13183 24117 ft 244 kts 291°
2026-05-07 15:31 47.15574 -79.15515 24117 ft 243 kts 291°
2026-05-07 15:32 47.16176 -79.17839 24116 ft 244 kts 291°
2026-05-07 15:32 47.16779 -79.20165 24118 ft 243 kts 291°
2026-05-07 15:32 47.17373 -79.22461 24117 ft 243 kts 291°
2026-05-07 15:32 47.17974 -79.24785 24117 ft 243 kts 291°
2026-05-07 15:33 47.18573 -79.27107 24117 ft 243 kts 291°
2026-05-07 15:33 47.19174 -79.29434 24117 ft 243 kts 291°
2026-05-07 15:33 47.19776 -79.31772 24117 ft 244 kts 291°
2026-05-07 15:33 47.20376 -79.34106 24117 ft 244 kts 291°
2026-05-07 15:34 47.20977 -79.36442 24118 ft 244 kts 291°
2026-05-07 15:34 47.21576 -79.38772 24117 ft 244 kts 291°
2026-05-07 15:34 47.22174 -79.41102 24117 ft 243 kts 291°
2026-05-07 15:34 47.22771 -79.43431 24116 ft 243 kts 291°
2026-05-07 15:35 47.23367 -79.45759 24117 ft 243 kts 291°
2026-05-07 15:35 47.23964 -79.48091 24117 ft 244 kts 291°
2026-05-07 15:35 47.24561 -79.50427 24118 ft 244 kts 291°
2026-05-07 15:35 47.25157 -79.52764 24117 ft 244 kts 291°
2026-05-07 15:36 47.25746 -79.55071 24117 ft 244 kts 291°
2026-05-07 15:36 47.26349 -79.57439 24117 ft 244 kts 291°
2026-05-07 15:36 47.26946 -79.59781 24117 ft 244 kts 291°
2026-05-07 15:36 47.27534 -79.62094 24117 ft 245 kts 291°
2026-05-07 15:37 47.28130 -79.64442 24117 ft 245 kts 291°
2026-05-07 15:37 47.28727 -79.66794 24117 ft 245 kts 291°
2026-05-07 15:37 47.29323 -79.69142 24118 ft 245 kts 291°
2026-05-07 15:37 47.29918 -79.71492 24118 ft 245 kts 291°
2026-05-07 15:38 47.30514 -79.73847 24116 ft 245 kts 291°
2026-05-07 15:38 47.31112 -79.76215 24118 ft 247 kts 291°
2026-05-07 15:38 47.31712 -79.78595 24118 ft 249 kts 291°
2026-05-07 15:38 47.32316 -79.80987 24119 ft 249 kts 291°
2026-05-07 15:39 47.32920 -79.83383 24118 ft 250 kts 291°
2026-05-07 15:39 47.33524 -79.85784 24120 ft 250 kts 291°
2026-05-07 15:39 47.34129 -79.88189 24118 ft 250 kts 291°
2026-05-07 15:39 47.34732 -79.90593 24119 ft 250 kts 291°
2026-05-07 15:40 47.35328 -79.92967 24117 ft 250 kts 291°
2026-05-07 15:40 47.35928 -79.95364 24118 ft 249 kts 291°
2026-05-07 15:40 47.36529 -79.97762 24118 ft 250 kts 291°
2026-05-07 15:40 47.37131 -80.00171 24118 ft 249 kts 291°
2026-05-07 15:41 47.37731 -80.02574 24117 ft 250 kts 291°
2026-05-07 15:41 47.38332 -80.04981 24119 ft 250 kts 291°
2026-05-07 15:41 47.38933 -80.07389 24117 ft 250 kts 291°
2026-05-07 15:41 47.39534 -80.09802 24118 ft 250 kts 291°
2026-05-07 15:42 47.40132 -80.12209 24117 ft 250 kts 291°
2026-05-07 15:42 47.40728 -80.14610 24117 ft 250 kts 291°
2026-05-07 15:42 47.41327 -80.17022 24118 ft 250 kts 291°
2026-05-07 15:42 47.41924 -80.19428 24118 ft 250 kts 291°
2026-05-07 15:43 47.42513 -80.21807 24118 ft 250 kts 291°
2026-05-07 15:43 47.43110 -80.24220 24118 ft 250 kts 291°
2026-05-07 15:43 47.43705 -80.26629 24118 ft 250 kts 291°
2026-05-07 15:43 47.44300 -80.29036 24117 ft 250 kts 291°
2026-05-07 15:44 47.44897 -80.31456 24119 ft 251 kts 291°
2026-05-07 15:44 47.45493 -80.33878 24118 ft 252 kts 291°
2026-05-07 15:44 47.46092 -80.36312 24119 ft 252 kts 291°
2026-05-07 15:44 47.46690 -80.38745 24119 ft 252 kts 291°
2026-05-07 15:45 47.47288 -80.41180 24119 ft 252 kts 291°
2026-05-07 15:45 47.47886 -80.43617 24119 ft 252 kts 291°
2026-05-07 15:45 47.48482 -80.46050 24119 ft 252 kts 291°
2026-05-07 15:45 47.49078 -80.48485 24118 ft 252 kts 291°
2026-05-07 15:46 47.50267 -80.53348 24119 ft 251 kts 291°
2026-05-07 15:46 47.50857 -80.55771 24118 ft 251 kts 291°
2026-05-07 15:46 47.51441 -80.58169 24119 ft 250 kts 291°
2026-05-07 15:47 47.52031 -80.60591 24119 ft 250 kts 291°
2026-05-07 15:47 47.52620 -80.63013 24118 ft 250 kts 291°
2026-05-07 15:47 47.53207 -80.65431 24118 ft 249 kts 291°
2026-05-07 15:47 47.53794 -80.67847 24119 ft 249 kts 291°
2026-05-07 15:48 47.54378 -80.70258 24119 ft 249 kts 291°
2026-05-07 15:48 47.54960 -80.72665 24119 ft 248 kts 291°
2026-05-07 15:48 47.55543 -80.75075 24119 ft 249 kts 291°
2026-05-07 15:48 47.56125 -80.77482 24118 ft 249 kts 291°
2026-05-07 15:49 47.56706 -80.79889 24119 ft 248 kts 291°
2026-05-07 15:49 47.57260 -80.82314 24118 ft 248 kts 285°
2026-05-07 15:49 47.57568 -80.84823 24121 ft 248 kts 281°
2026-05-07 15:49 47.57855 -80.87345 24120 ft 248 kts 281°
2026-05-07 15:50 47.58149 -80.89864 24122 ft 249 kts 282°
2026-05-07 15:50 47.58446 -80.92390 24120 ft 249 kts 281°
2026-05-07 15:50 47.58742 -80.94915 24120 ft 249 kts 281°
2026-05-07 15:50 47.59031 -80.97411 24121 ft 249 kts 281°
2026-05-07 15:51 47.59324 -80.99940 24120 ft 249 kts 281°
2026-05-07 15:51 47.59618 -81.02475 24121 ft 251 kts 281°
2026-05-07 15:51 47.59913 -81.05027 24121 ft 252 kts 281°
2026-05-07 15:51 47.60208 -81.07585 24122 ft 252 kts 281°
2026-05-07 15:52 47.60502 -81.10147 24121 ft 252 kts 281°
2026-05-07 15:52 47.60797 -81.12711 24122 ft 252 kts 281°
2026-05-07 15:52 47.61091 -81.15273 24121 ft 252 kts 281°
2026-05-07 15:52 47.61384 -81.17840 24123 ft 252 kts 281°
2026-05-07 15:53 47.61678 -81.20403 24122 ft 252 kts 282°
2026-05-07 15:53 47.61969 -81.22965 24122 ft 252 kts 282°
2026-05-07 15:53 47.62260 -81.25530 24121 ft 252 kts 282°
2026-05-07 15:53 47.62551 -81.28095 24122 ft 252 kts 282°
2026-05-07 15:54 47.62743 -81.29790 24121 ft 252 kts 282°
2026-05-07 15:54 47.63033 -81.32352 24122 ft 252 kts 282°
2026-05-07 15:54 47.63322 -81.34912 24121 ft 252 kts 281°
2026-05-07 15:54 47.63610 -81.37480 24121 ft 253 kts 282°
2026-05-07 15:55 47.63899 -81.40051 24121 ft 253 kts 282°
2026-05-07 15:55 47.64187 -81.42623 24121 ft 253 kts 282°
2026-05-07 15:55 47.64475 -81.45189 24121 ft 253 kts 282°
2026-05-07 15:55 47.64762 -81.47764 24121 ft 252 kts 282°
2026-05-07 15:56 47.65049 -81.50332 24120 ft 253 kts 282°
2026-05-07 15:56 47.65335 -81.52909 24121 ft 253 kts 282°
2026-05-07 15:56 47.65620 -81.55482 24122 ft 253 kts 282°
2026-05-07 15:56 47.65905 -81.58053 24122 ft 253 kts 282°
2026-05-07 15:57 47.66186 -81.60598 24121 ft 253 kts 282°
2026-05-07 15:57 47.66470 -81.63178 24122 ft 253 kts 282°
2026-05-07 15:57 47.66753 -81.65753 24121 ft 253 kts 282°
2026-05-07 15:57 47.67037 -81.68334 24121 ft 253 kts 282°
2026-05-07 15:58 47.67319 -81.70908 24122 ft 252 kts 282°
2026-05-07 15:58 47.67599 -81.73480 24121 ft 253 kts 282°
2026-05-07 15:58 47.67881 -81.76059 24121 ft 253 kts 282°
2026-05-07 15:58 47.68161 -81.78636 24121 ft 253 kts 282°
2026-05-07 15:59 47.68441 -81.81215 24122 ft 253 kts 282°
2026-05-07 15:59 47.68720 -81.83798 24120 ft 254 kts 282°
2026-05-07 15:59 47.69001 -81.86387 24121 ft 254 kts 282°
2026-05-07 15:59 47.69276 -81.88934 24122 ft 254 kts 282°
2026-05-07 16:00 47.69554 -81.91520 24123 ft 254 kts 282°
2026-05-07 16:00 47.69832 -81.94113 24122 ft 254 kts 282°
2026-05-07 16:00 47.70110 -81.96702 24122 ft 254 kts 282°
2026-05-07 16:00 47.70387 -81.99296 24122 ft 254 kts 282°
2026-05-07 16:01 47.70660 -82.01854 24121 ft 254 kts 282°
2026-05-07 16:01 47.70939 -82.04482 24121 ft 256 kts 282°
2026-05-07 16:01 47.71217 -82.07095 24122 ft 257 kts 282°
2026-05-07 16:01 47.71495 -82.09717 24121 ft 257 kts 282°
2026-05-07 16:02 47.71772 -82.12343 24122 ft 258 kts 282°
2026-05-07 16:02 47.72050 -82.14972 24122 ft 258 kts 282°
2026-05-07 16:02 47.72327 -82.17604 24122 ft 258 kts 282°
2026-05-07 16:02 47.72603 -82.20232 24122 ft 258 kts 282°
2026-05-07 16:03 47.72878 -82.22862 24122 ft 258 kts 282°
2026-05-07 16:03 47.73155 -82.25496 24122 ft 257 kts 282°
2026-05-07 16:03 47.73428 -82.28117 24122 ft 257 kts 281°
2026-05-07 16:03 47.73700 -82.30746 24122 ft 257 kts 281°
2026-05-07 16:04 47.74030 -82.33308 24122 ft 255 kts 286°
2026-05-07 16:04 47.74484 -82.35843 24123 ft 254 kts 288°
2026-05-07 16:04 47.74923 -82.38389 24122 ft 254 kts 286°
2026-05-07 16:04 47.75324 -82.40947 24122 ft 254 kts 285°
2026-05-07 16:05 47.75722 -82.43508 24121 ft 254 kts 285°
2026-05-07 16:05 47.76127 -82.46059 24121 ft 254 kts 285°
2026-05-07 16:05 47.76536 -82.48617 24121 ft 254 kts 285°
2026-05-07 16:05 47.76940 -82.51166 24121 ft 253 kts 285°
2026-05-07 16:06 47.77342 -82.53717 24121 ft 253 kts 285°
2026-05-07 16:06 47.77745 -82.56265 24121 ft 253 kts 285°
2026-05-07 16:06 47.78147 -82.58815 24121 ft 253 kts 285°
2026-05-07 16:06 47.78547 -82.61359 24121 ft 253 kts 285°
2026-05-07 16:07 47.78947 -82.63910 24121 ft 253 kts 285°
2026-05-07 16:07 47.79346 -82.66456 24122 ft 253 kts 285°
2026-05-07 16:07 47.79748 -82.69019 24121 ft 254 kts 285°
2026-05-07 16:07 47.80144 -82.71552 24122 ft 255 kts 285°
2026-05-07 16:08 47.80545 -82.74124 24122 ft 255 kts 285°
2026-05-07 16:08 47.80945 -82.76697 24122 ft 255 kts 285°
2026-05-07 16:08 47.81346 -82.79271 24118 ft 255 kts 285°
2026-05-07 16:08 47.81748 -82.81850 24041 ft 258 kts 285°
2026-05-07 16:09 47.82158 -82.84486 23663 ft 263 kts 285°
2026-05-07 16:09 47.82570 -82.87136 23326 ft 262 kts 284°
2026-05-07 16:09 47.82974 -82.89753 23034 ft 257 kts 284°
2026-05-07 16:09 47.83370 -82.92320 22723 ft 252 kts 284°
2026-05-07 16:10 47.83758 -82.94842 22423 ft 249 kts 284°
2026-05-07 16:10 47.84143 -82.97345 22122 ft 247 kts 284°
2026-05-07 16:10 47.84525 -82.99826 21822 ft 245 kts 284°
2026-05-07 16:10 47.84903 -83.02288 21522 ft 243 kts 284°
2026-05-07 16:11 47.85278 -83.04739 21221 ft 242 kts 284°
2026-05-07 16:11 47.85650 -83.07171 20921 ft 241 kts 284°
2026-05-07 16:11 47.86021 -83.09605 20620 ft 239 kts 284°
2026-05-07 16:11 47.86384 -83.11984 20323 ft 238 kts 284°
2026-05-07 16:12 47.86750 -83.14390 20018 ft 237 kts 284°
2026-05-07 16:12 47.87114 -83.16784 19722 ft 236 kts 284°
2026-05-07 16:12 47.87475 -83.19164 19422 ft 235 kts 283°
2026-05-07 16:12 47.87835 -83.21538 19122 ft 235 kts 283°
2026-05-07 16:13 47.88193 -83.23904 18828 ft 234 kts 283°
2026-05-07 16:13 47.88550 -83.26263 18522 ft 233 kts 283°
2026-05-07 16:13 47.88904 -83.28613 18221 ft 232 kts 283°
2026-05-07 16:13 47.89257 -83.30953 17917 ft 231 kts 283°
2026-05-07 16:14 47.89607 -83.33280 17621 ft 230 kts 283°
2026-05-07 16:14 47.89955 -83.35601 17322 ft 229 kts 283°
2026-05-07 16:14 47.90303 -83.37920 17020 ft 229 kts 283°
2026-05-07 16:14 47.90650 -83.40239 16720 ft 230 kts 283°
2026-05-07 16:15 47.90995 -83.42555 16425 ft 234 kts 282°
2026-05-07 16:15 47.91352 -83.44944 16125 ft 237 kts 282°
2026-05-07 16:15 47.91711 -83.47349 15822 ft 238 kts 282°
2026-05-07 16:15 47.92071 -83.49762 15526 ft 238 kts 282°
2026-05-07 16:16 47.92429 -83.52174 15225 ft 238 kts 282°
2026-05-07 16:16 47.92787 -83.54590 14924 ft 238 kts 282°
2026-05-07 16:16 47.93144 -83.57001 14624 ft 238 kts 282°
2026-05-07 16:16 47.93500 -83.59402 14331 ft 237 kts 282°
2026-05-07 16:17 47.93852 -83.61791 14076 ft 235 kts 282°
2026-05-07 16:17 47.94197 -83.64133 13817 ft 233 kts 282°
2026-05-07 16:17 47.94545 -83.66491 13589 ft 232 kts 282°
2026-05-07 16:17 47.94891 -83.68843 13332 ft 232 kts 281°
2026-05-07 16:18 47.95235 -83.71185 13076 ft 231 kts 281°
2026-05-07 16:18 47.95576 -83.73520 12832 ft 230 kts 281°
2026-05-07 16:18 47.95918 -83.75852 12580 ft 230 kts 281°
2026-05-07 16:18 47.96258 -83.78178 12331 ft 229 kts 281°
2026-05-07 16:19 47.96597 -83.80499 12080 ft 229 kts 281°
2026-05-07 16:19 47.96935 -83.82821 11830 ft 228 kts 281°
2026-05-07 16:19 47.97272 -83.85136 11579 ft 228 kts 281°
2026-05-07 16:19 47.97607 -83.87446 11329 ft 228 kts 281°
2026-05-07 16:20 47.97942 -83.89755 11080 ft 228 kts 281°
2026-05-07 16:20 47.98276 -83.92064 10827 ft 227 kts 281°
2026-05-07 16:20 47.98609 -83.94366 10580 ft 227 kts 281°
2026-05-07 16:20 47.98942 -83.96669 10328 ft 226 kts 281°
2026-05-07 16:21 47.99274 -83.98968 10080 ft 227 kts 281°
2026-05-07 16:21 47.99606 -84.01268 9826 ft 227 kts 281°
2026-05-07 16:21 47.99933 -84.03579 9574 ft 229 kts 281°
2026-05-07 16:21 48.00264 -84.05904 9328 ft 229 kts 281°
2026-05-07 16:22 48.00604 -84.08242 9075 ft 229 kts 281°
2026-05-07 16:22 48.00941 -84.10566 8826 ft 229 kts 281°
2026-05-07 16:22 48.01274 -84.12885 8573 ft 228 kts 281°
2026-05-07 16:22 48.01604 -84.15204 8327 ft 228 kts 281°
2026-05-07 16:23 48.01934 -84.17519 8076 ft 227 kts 281°
2026-05-07 16:23 48.02257 -84.19801 7829 ft 227 kts 281°
2026-05-07 16:23 48.02582 -84.22098 7579 ft 226 kts 281°
2026-05-07 16:23 48.02909 -84.24398 7329 ft 226 kts 281°
2026-05-07 16:24 48.03233 -84.26686 7078 ft 225 kts 281°
2026-05-07 16:24 48.03555 -84.28970 6828 ft 224 kts 281°
2026-05-07 16:24 48.03877 -84.31239 6577 ft 222 kts 281°
2026-05-07 16:24 48.04194 -84.33479 6326 ft 219 kts 281°
2026-05-07 16:25 48.04502 -84.35667 6074 ft 212 kts 281°
2026-05-07 16:25 48.04801 -84.37802 5823 ft 208 kts 281°
2026-05-07 16:25 48.05098 -84.39927 5572 ft 209 kts 281°
2026-05-07 16:25 48.05395 -84.42053 5316 ft 207 kts 281°
2026-05-07 16:26 48.05686 -84.44124 5070 ft 200 kts 280°
2026-05-07 16:26 48.05965 -84.46133 4824 ft 195 kts 280°
2026-05-07 16:26 48.06240 -84.48101 4569 ft 192 kts 280°
2026-05-07 16:26 48.06419 -84.49388 4403 ft 190 kts 280°
2026-05-07 16:27 48.06777 -84.51957 4067 ft 188 kts 280°
2026-05-07 16:27 48.07064 -84.53854 3815 ft 186 kts 286°
2026-05-07 16:27 48.07681 -84.55555 3561 ft 187 kts 300°
2026-05-07 16:27 48.08376 -84.57163 3313 ft 184 kts 301°
2026-05-07 16:28 48.09044 -84.58713 3063 ft 171 kts 300°
2026-05-07 16:28 48.09668 -84.60173 2809 ft 164 kts 300°
2026-05-07 16:28 48.10267 -84.61583 2705 ft 155 kts 300°
2026-05-07 16:28 48.10679 -84.62976 2704 ft 138 kts 278°
2026-05-07 16:29 48.10663 -84.64310 2710 ft 121 kts 254°
2026-05-07 16:29 48.10350 -84.65395 2712 ft 109 kts 236°
2026-05-07 16:29 48.09840 -84.66194 2706 ft 104 kts 217°
2026-05-07 16:29 48.09236 -84.66769 2714 ft 99 kts 214°
2026-05-07 16:30 48.08695 -84.67289 2703 ft 87 kts 214°
2026-05-07 16:30 48.08194 -84.67766 2698 ft 89 kts 215°
2026-05-07 16:30 48.07655 -84.68279 2709 ft 95 kts 215°
2026-05-07 16:30 48.07094 -84.68813 2713 ft 96 kts 214°
2026-05-07 16:31 48.06526 -84.69354 2708 ft 96 kts 215°
2026-05-07 16:31 48.05956 -84.69894 2714 ft 97 kts 215°
2026-05-07 16:31 48.05383 -84.70437 2719 ft 98 kts 215°
2026-05-07 16:31 48.04811 -84.70980 2717 ft 97 kts 215°
2026-05-07 16:32 48.04246 -84.71514 2713 ft 96 kts 214°
2026-05-07 16:32 48.03684 -84.72046 2704 ft 95 kts 215°
2026-05-07 16:32 48.03124 -84.72579 2665 ft 95 kts 214°
2026-05-07 16:32 48.02572 -84.73102 2539 ft 90 kts 214°
2026-05-07 16:33 48.02064 -84.73580 2389 ft 83 kts 214°
2026-05-07 16:33 48.01566 -84.74049 2257 ft 87 kts 214°
2026-05-07 16:33 48.01049 -84.74538 2111 ft 88 kts 215°
2026-05-07 16:33 48.00525 -84.75032 1960 ft 89 kts 216°
2026-05-07 16:34 48.00009 -84.75518 1814 ft 87 kts 216°
2026-05-07 16:34 47.99499 -84.75998 1674 ft 87 kts 216°
2026-05-07 16:34 47.98986 -84.76480 1529 ft 87 kts 217°
2026-05-07 16:34 47.98473 -84.76962 1382 ft 86 kts 218°
2026-05-07 16:35 47.97976 -84.77439 1260 ft 87 kts 220°
2026-05-07 16:35 47.97478 -84.77937 1095 ft 83 kts 219°
2026-05-07 16:35 47.96986 -84.78371 946 ft 76 kts 209°
2026-05-07 16:35 47.96662 -84.78638 946 ft 13 kts 205°
2026-05-07 16:36 47.96577 -84.78701 947 ft 17 kts 203°
2026-05-07 16:36 47.96569 -84.78739 946 ft 8 kts 40°
2026-05-07 16:36 47.96675 -84.78635 945 ft 28 kts 29°
2026-05-07 16:36 47.96871 -84.78477 941 ft 33 kts 29°
2026-05-07 16:37 47.97076 -84.78305 941 ft 32 kts 29°
2026-05-07 16:37 47.97215 -84.78222 941 ft 11 kts 342°
2026-05-07 16:37 47.97288 -84.78195 942 ft 5 kts 14°
2026-05-07 16:37 47.97323 -84.78196 942 ft 3 kts 326°
2026-05-07 16:38 47.97328 -84.78205 942 ft 0 kts 301°